Weather History for KFME - June, 2013

Change the Weather History Date:

Friday, June 14, 2013

  Actual Average (KBWI) Record (KBWI)
Temperature  
Mean Temperature 68 °F 72 °F  
Max Temperature 77 °F 83 °F 98 °F (1994)
Min Temperature 59 °F 62 °F 46 °F (1978)
Degree Days  
Heating Degree Days 0 0  
Month to date heating degree days 13  
Since 1 June heating degree days 13  
Since 1 July heating degree days 4762  
Cooling Degree Days 3 8  
Month to date cooling degree days 85  
Year to date cooling degree days 169  
Since 1 June cooling degree days 85  
Growing Degree Days 18 (Base 50)    
Moisture  
Dew Point 53 °F    
Average Humidity 65    
Maximum Humidity 88    
Minimum Humidity 41    
Precipitation  
Precipitation 0.00 in 0.12 in 2.14 in (1947)
Month to date precipitation 1.69  
Year to date precipitation 18.72  
Snow  
Snow 0.00 in 0.00 in - ()
Month to date snowfall 0.0  
Since 1 July snowfall 20.1  
Snow Depth -    
Sea Level Pressure  
Sea Level Pressure 29.88 in    
Wind  
Wind Speed 7 mph (NNW)    
Max Wind Speed 16 mph    
Max Gust Speed 25 mph    
Visibility 10 miles    
Events      
T = Trace of Precipitation, MM = Missing Value Source: NWS Daily Summary

Daily Weather History Graph

Daily Weather History Graph

Search for Another Location

Airport or City:

Trip Planner

Search our weather history database for the weather conditions in past years. The results will help you decide how hot, cold, wet, or windy it might be!

Date:

Astronomy

Jun. 14, 2013 Rise Set
Actual Time 5:40 AM EDT 8:34 PM EDT
Civil Twilight 5:08 AM EDT 9:06 PM EDT
Nautical Twilight 4:27 AM EDT 9:47 PM EDT
Astronomical Twilight 3:41 AM EDT 10:33 PM EDT
Moon 11:11 AM EDT (6/14) No Moon Set
Length of Visible Light 15h 58m
Length of Day
14h 53m
Waxing Crescent, 30% of the Moon is Illuminated
Jun 14
Waxing Crescent
Jun 16
First Quarter
Jun 23
Full
Jun 30
Last Quarter
Jul 8
New

Hourly Weather History & Observations

Time (EDT) Temp. Dew Point Humidity Pressure Visibility Wind Dir Wind Speed Gust Speed Precip Events Conditions
3:33 AM 62.6 °F 53.6 °F 72% 29.68 in 10.0 mi North 15.0 mph 25.3 mph N/A   Overcast
4:33 AM 60.8 °F 53.6 °F 77% 29.72 in 10.0 mi North 9.2 mph - N/A   Overcast
5:12 AM 60.8 °F 53.6 °F 77% 29.74 in 10.0 mi North 6.9 mph 16.1 mph N/A   Overcast
5:33 AM 60.8 °F 51.8 °F 72% 29.75 in 10.0 mi North 4.6 mph - N/A   Overcast
5:51 AM 59.0 °F 53.6 °F 82% 29.76 in 10.0 mi NNW 6.9 mph - N/A   Overcast
6:12 AM 59.0 °F 53.6 °F 82% 29.77 in 7.0 mi NW 4.6 mph - N/A   Overcast
6:33 AM 59.0 °F 53.6 °F 82% 29.77 in 10.0 mi NW 5.8 mph - N/A   Overcast
6:51 AM 59.0 °F 55.4 °F 88% 29.78 in 10.0 mi NW 3.5 mph - N/A   Overcast
7:12 AM 59.0 °F 55.4 °F 88% 29.79 in 5.0 mi WNW 3.5 mph - N/A   Overcast
7:33 AM 59.0 °F 55.4 °F 88% 29.80 in 10.0 mi WNW 3.5 mph - N/A   Overcast
7:51 AM 59.0 °F 55.4 °F 88% 29.80 in 10.0 mi NW 4.6 mph - N/A   Mostly Cloudy
8:12 AM 59.0 °F 55.4 °F 88% 29.82 in 10.0 mi NW 4.6 mph - N/A   Mostly Cloudy
8:33 AM 59.0 °F 55.4 °F 88% 29.83 in 10.0 mi NW 3.5 mph - N/A   Overcast
8:51 AM 60.8 °F 55.4 °F 82% 29.83 in 10.0 mi NNW 3.5 mph - N/A   Overcast
9:12 AM 60.8 °F 55.4 °F 82% 29.84 in 10.0 mi NNW 4.6 mph - N/A   Overcast
9:33 AM 62.6 °F 55.4 °F 77% 29.85 in 10.0 mi North 9.2 mph 17.3 mph N/A   Mostly Cloudy
9:51 AM 64.4 °F 53.6 °F 68% 29.86 in 10.0 mi North 9.2 mph 17.3 mph N/A   Scattered Clouds
10:12 AM 64.4 °F 51.8 °F 64% 29.87 in 10.0 mi North 8.1 mph 19.6 mph N/A   Scattered Clouds
10:33 AM 66.2 °F 50.0 °F 56% 29.88 in 10.0 mi North 9.2 mph 19.6 mph N/A   Mostly Cloudy
10:51 AM 68.0 °F 50.0 °F 52% 29.89 in 10.0 mi North 16.1 mph 25.3 mph N/A   Mostly Cloudy
11:12 AM 68.0 °F 50.0 °F 52% 29.89 in 10.0 mi NNE 10.4 mph 20.7 mph N/A   Scattered Clouds
11:33 AM 68.0 °F 48.2 °F 49% 29.90 in 10.0 mi North 9.2 mph 19.6 mph N/A   Clear
11:51 AM 69.8 °F 48.2 °F 46% 29.90 in 10.0 mi North 9.2 mph 18.4 mph N/A   Scattered Clouds
12:12 PM 69.8 °F 50.0 °F 49% 29.91 in 10.0 mi NNW 8.1 mph - N/A   Scattered Clouds
12:33 PM 69.8 °F 50.0 °F 49% 29.90 in 10.0 mi North 8.1 mph 16.1 mph N/A   Mostly Cloudy
12:54 PM 71.6 °F 51.8 °F 50% 29.90 in 10.0 mi NNW 11.5 mph 20.7 mph N/A   Scattered Clouds
1:12 PM 71.6 °F 51.8 °F 50% 29.90 in 10.0 mi North 5.8 mph - N/A   Scattered Clouds
1:33 PM 69.8 °F 51.8 °F 53% 29.91 in 10.0 mi NW 10.4 mph - N/A   Mostly Cloudy
1:54 PM 71.6 °F 51.8 °F 50% 29.91 in 10.0 mi North 3.5 mph - N/A   Scattered Clouds
2:12 PM 71.6 °F 51.8 °F 50% 29.90 in 10.0 mi North 8.1 mph - N/A   Scattered Clouds
2:33 PM 71.6 °F 51.8 °F 50% 29.90 in 10.0 mi WNW 6.9 mph - N/A   Mostly Cloudy
2:54 PM 73.4 °F 51.8 °F 47% 29.91 in 10.0 mi WNW 6.9 mph - N/A   Scattered Clouds
3:12 PM 75.2 °F 51.8 °F 44% 29.91 in 10.0 mi North 6.9 mph - N/A   Clear
3:33 PM 75.2 °F 51.8 °F 44% 29.90 in 10.0 mi WNW 6.9 mph - N/A   Scattered Clouds
3:54 PM 75.2 °F 53.6 °F 47% 29.90 in 10.0 mi NW 8.1 mph - N/A   Scattered Clouds
4:12 PM 75.2 °F 53.6 °F 47% 29.89 in 10.0 mi NNW 5.8 mph - N/A   Mostly Cloudy
4:33 PM 77.0 °F 51.8 °F 41% 29.89 in 10.0 mi NW 8.1 mph 17.3 mph N/A   Scattered Clouds
4:54 PM 73.4 °F 51.8 °F 47% 29.89 in 10.0 mi West 6.9 mph - N/A   Mostly Cloudy
5:12 PM 75.2 °F 51.8 °F 44% 29.89 in 10.0 mi West 10.4 mph - N/A   Scattered Clouds
5:33 PM 75.2 °F 51.8 °F 44% 29.89 in 10.0 mi NW 9.2 mph - N/A   Clear
5:54 PM 75.2 °F 50.0 °F 41% 29.89 in 10.0 mi WNW 6.9 mph - N/A   Clear
6:12 PM 75.2 °F 50.0 °F 41% 29.89 in 10.0 mi NW 4.6 mph - N/A   Clear
6:33 PM 73.4 °F 51.8 °F 47% 29.90 in 10.0 mi NW 8.1 mph - N/A   Scattered Clouds
6:54 PM 73.4 °F 51.8 °F 47% 29.90 in 10.0 mi NW 5.8 mph - N/A   Clear
7:12 PM 71.6 °F 51.8 °F 50% 29.90 in 10.0 mi WNW 6.9 mph - N/A   Clear
7:33 PM 71.6 °F 51.8 °F 50% 29.91 in 10.0 mi WNW 4.6 mph - N/A   Clear
7:54 PM 69.8 °F 53.6 °F 56% 29.91 in 10.0 mi Calm Calm - N/A   Clear
8:12 PM 68.0 °F 55.4 °F 64% 29.92 in 10.0 mi Calm Calm - N/A   Clear
8:33 PM 64.4 °F 57.2 °F 77% 29.93 in 10.0 mi WNW 3.5 mph - N/A   Clear
8:54 PM 64.4 °F 57.2 °F 77% 29.93 in 10.0 mi Calm Calm - N/A   Clear
9:12 PM 62.6 °F 57.2 °F 82% 29.94 in 10.0 mi Calm Calm - N/A   Clear
9:33 PM 62.6 °F 59.0 °F 88% 29.95 in 10.0 mi Calm Calm - N/A   Clear
9:54 PM 62.6 °F 57.2 °F 82% 29.95 in 10.0 mi Calm Calm - N/A   Clear
10:15 PM 60.8 °F 55.4 °F 82% 29.97 in 10.0 mi Calm Calm - N/A   Clear
10:33 PM 60.8 °F 55.4 °F 82% 29.97 in 10.0 mi Calm Calm - N/A   Clear
10:54 PM 60.8 °F 57.2 °F 88% 29.98 in 10.0 mi Calm Calm - N/A   Clear
11:15 PM 59.0 °F 55.4 °F 88% 29.98 in 10.0 mi Calm Calm - N/A   Clear
11:33 PM 59.0 °F 55.4 °F 88% 29.99 in 10.0 mi Calm Calm - N/A   Clear
11:54 PM 59.0 °F 55.4 °F 88% 29.99 in 10.0 mi Calm Calm - N/A   Clear